User: anonymous   Login
Location: Unspecified
(0.0000°N, 0.0000°E)
Time: 03:36:03
(UTC+00:00)
Language:

SAUDISAT 3 - Orbit

View from above orbital plane
View from above orbital plane
View from above satellite
View from above satellite

Ground track
Ground track

The orbit data is extracted from the following two-line orbital elements,

1 31118U 07012B   17112.90287975 +.00000212 +00000-0 +43895-4 0  9991
2 31118 097.7289 109.3410 0016678 086.7883 273.5247 14.69051282536893
Epoch (UTC): 22 April 2017 21:40:08
Eccentricity: 0.0016678
inclination: 97.7289°
perigee height: 652 km
apogee height: 676 km
right ascension of ascending node: 109.3410°
argument of perigee: 86.7883°
revolutions per day: 14.69051282
mean anomaly at epoch: 273.5247°
orbit number at epoch: 53689

The dashed part of the orbit path shows where the satellite is in the earth's shadow,  

DLR